London-Corbin, KY

6:31 AM EST on December 08, 2019 (GMT -0500)
London-Corbin / McKee

Weather History for KLOZ - June, 2019

Change the Weather History Date:

Tuesday, June 4, 2019

  Actual Average Record
Temperature  
Mean Temperature 68 °F 70 °F  
Max Temperature 85 °F 81 °F 92 °F (2002)
Min Temperature 51 °F 59 °F 40 °F (1956)
Degree Days  
Heating Degree Days 0 1  
Month to date heating degree days 0 4  
Since 1 June heating degree days 0 4  
Since 1 July heating degree days 4024 4200  
Cooling Degree Days 3 6  
Month to date cooling degree days 14 21  
Year to date cooling degree days 192 135  
Since 1 June cooling degree days 14 21  
Growing Degree Days 18 (Base 50)    
Moisture  
Dew Point 56 °F    
Average Humidity 65    
Maximum Humidity 93    
Minimum Humidity 37    
Precipitation  
Precipitation 0.00 in 0.16 in 1.52 in (1992)
Month to date precipitation 0.00 0.65  
Sea Level Pressure  
Sea Level Pressure 30.07 in    
Wind  
Wind Speed 3 mph (SSW)    
Max Wind Speed 15 mph    
Max Gust Speed 26 mph    
Visibility 10 miles    
Events      
T = Trace of Precipitation, MM = Missing Value Source: NWS Daily Summary

Daily Weather History Graph

Daily Weather History Graph

Search for Another Location

Airport or City:

Astronomy

Jun. 04, 2019 Rise Set
Actual Time 6:17 AM EDT 8:52 PM EDT
Civil Twilight 5:46 AM EDT 9:22 PM EDT
Nautical Twilight 5:08 AM EDT 10:00 PM EDT
Astronomical Twilight 4:26 AM EDT 10:43 PM EDT
Moon 7:24 AM EDT (6/4) 10:19 PM EDT (6/4)
Length of Visible Light 15h 36m
Length of Day
14h 35m
New Moon, 2% of the Moon is Illuminated
Jun 4
New Moon
Jun 10
First Quarter
Jun 17
Full
Jun 25
Last Quarter
Jul 2
New

Hourly Weather History & Observations

Time (EDT) Temp. Heat Index Dew Point Humidity Pressure Visibility Wind Dir Wind Speed Gust Speed Precip Events Conditions
12:53 AM 57.0 °F - 53.1 °F 87% 30.13 in 10.0 mi Calm Calm - N/A   Clear
1:53 AM 55.0 °F - 53.1 °F 93% 30.12 in 10.0 mi Calm Calm - N/A   Clear
2:53 AM 54.0 °F - 52.0 °F 93% 30.12 in 10.0 mi Calm Calm - N/A   Clear
3:53 AM 54.0 °F - 52.0 °F 93% 30.12 in 10.0 mi Calm Calm - N/A   Clear
4:53 AM 53.1 °F - 51.1 °F 93% 30.12 in 10.0 mi Calm Calm - N/A   Clear
5:53 AM 53.1 °F - 52.0 °F 96% 30.12 in 10.0 mi Calm Calm - N/A   Clear
6:53 AM 53.1 °F - 51.1 °F 93% 30.13 in 10.0 mi Calm Calm - N/A   Clear
7:53 AM 54.0 °F - 52.0 °F 93% 30.14 in 10.0 mi South 3.5 mph - N/A   Clear
8:53 AM 60.1 °F - 53.1 °F 78% 30.15 in 10.0 mi Calm Calm - N/A   Clear
9:53 AM 64.0 °F - 53.1 °F 67% 30.14 in 10.0 mi SSE 4.6 mph - N/A   Clear
10:53 AM 70.0 °F - 53.1 °F 55% 30.11 in 10.0 mi ESE 5.8 mph - N/A   Clear
11:53 AM 73.0 °F - 52.0 °F 48% 30.11 in 10.0 mi SE 5.8 mph - N/A   Clear
12:53 PM 75.9 °F - 53.1 °F 45% 30.09 in 10.0 mi South 5.8 mph - N/A   Clear
1:53 PM 79.0 °F - 55.9 °F 45% 30.07 in 10.0 mi North - - N/A   Clear
2:53 PM 82.0 °F 81.6 °F 55.9 °F 41% 30.05 in 10.0 mi SW 12.7 mph - N/A   Clear
3:53 PM 82.9 °F 82.4 °F 57.0 °F 41% 30.04 in 10.0 mi WSW 9.2 mph - N/A   Clear
4:53 PM 84.0 °F 83.0 °F 55.9 °F 38% 30.02 in 10.0 mi SW 10.4 mph - N/A   Clear
5:53 PM 82.0 °F 81.7 °F 57.0 °F 42% 30.01 in 10.0 mi WSW 8.1 mph - N/A   Clear
6:53 PM 81.0 °F 81.6 °F 60.1 °F 49% 29.99 in 10.0 mi SW 4.6 mph - N/A   Clear
7:53 PM 77.0 °F - 61.0 °F 58% 29.98 in 10.0 mi WNW 3.5 mph - N/A   Partly Cloudy
8:53 PM 75.0 °F - 63.0 °F 66% 29.97 in 10.0 mi SSE 3.5 mph - N/A   Mostly Cloudy
9:53 PM 71.1 °F - 63.0 °F 75% 29.97 in 10.0 mi Calm Calm - N/A   Clear
10:53 PM 70.0 °F - 63.0 °F 78% 29.99 in 10.0 mi Calm Calm - N/A   Clear
11:53 PM 68.0 °F - 64.0 °F 87% 29.99 in 10.0 mi Calm Calm - N/A   Mostly Cloudy